Overview Statistics Trail Chart Weather Telemetry Raw packets
 

This is the latest recevied weather packets stored in our database for station/object WY7ATH-2. If no packets are shown the sender has not sent any weather packets the latest 10 day(s).

<< 3 4 5 6 7 8 9 >>
Time Temp. Humidity Pressure Rain* Wind** Luminosity Snow
1788581872 17.22° C - - 0 mm 0 m/s - -
1788581275 17.22° C - - 0 mm 0 m/s - -
1788580674 17.22° C - - 0 mm 0 m/s - -
1788574104 20° C - - 1.27 mm 0 m/s - -
1788573504 20.56° C - - 8.38 mm 1.79 m/s, 195° - -
1788572310 20.56° C - - 8.38 mm 0 m/s - -
1788571712 21.67° C - - 8.38 mm 0.45 m/s, 173° - -
1788570518 23.89° C - - 8.38 mm 2.24 m/s, 232° - -
1788569321 25.56° C - - 9.14 mm 4.47 m/s, 166° - -
1788566933 26.67° C - - 9.14 mm 5.81 m/s, 198° - -
1788563944 27.78° C - - 4.32 mm 3.13 m/s, 184° - -
1788559761 31.67° C - - 4.32 mm 1.79 m/s, 246° - -
1788557966 29.44° C - - 4.57 mm 0 m/s - -
1788557369 28.33° C - - 4.57 mm 0 m/s - -
1788556774 28.89° C - - 4.57 mm 0 m/s - -
1788556175 28.33° C - - 4.57 mm 0 m/s - -
1788555575 28.89° C - - 9.65 mm 3.13 m/s, 211° - -
1788554978 28.33° C - - 9.65 mm 5.81 m/s, 239° - -
1788554380 28.89° C - - 9.65 mm 0 m/s - -
1788553783 27.22° C - - 9.65 mm 0 m/s - -
1788552589 28.33° C - - 9.65 mm 4.92 m/s, 179° - -
1788551989 28.89° C - - 31.24 mm 2.68 m/s, 240° - -
1788550795 28.33° C - - 31.24 mm 0 m/s - -
1788550197 27.22° C - - 31.24 mm 0.89 m/s, 266° - -
1788549600 28.33° C - - 31.24 mm 4.47 m/s, 302° - -

* Rain latest hour (hover to see other rain measurements)
** Current wind speed in m/s (hover to see current wind gust speed)